Preview of NWS' New Version of Forecast
This preview is not operational and should not be used for support decisions.

Regional Weather Roundup (RWR)

Issued by National Weather Service (NWS)

                            
000
ASUS45 KABQ 210001
RWRNM 
NEW MEXICO REGIONAL WEATHER ROUNDUP
NATIONAL WEATHER SERVICE ALBUQUERQUE NM
500 PM MST WED FEB 20 2019

NOTE: "FAIR" MEANS FEW OR NO CLOUDS BELOW 12,000 FEET AGL WITH NO
       SIGNIFICANT WEATHER OR OBSTRUCTIONS TO VISION.

      THIS PRODUCT IS RELEASED AS TWO VERSIONS.  ONE VERSION NEAR
      THE TOP OF THE HOUR CONTAINING PRELIMINARY DATA FROM ALBUQUERQUE
      AND OTHER STATIONS.  A FINAL VERSION WITH ADDITIONAL DATA IS 
      ISSUED ABOUT 10 MINUTES AFTER THE HOUR.
 
NMZ501-503-504-510>518-210100-
NORTHWEST PLATEAU/NORTHCENTRAL MOUNTAINS
  
CITY           SKY/WX    TMP DP  RH WIND       PRES   REMARKS
FARMINGTON     PTSUNNY   28  14  55 E12       29.74F WCI  18          
6HR MIN TEMP:  22; 6HR MAX TEMP:  30;                                

LOS ALAMOS     FAIR      29   4  34 W6        29.74S WCI  23          
SANTA FE       FAIR      31  10  41 W14       29.75S WCI  21          
6HR MIN TEMP:  27; 6HR MAX TEMP:  34;                                

TAOS           MOCLDY    31  12  45 SW6       29.76S WCI  25          
ANGEL FIRE       N/A     19   7  59 W15G22    29.70R WCI   5          

$$
NMZ402-403-502-505>509-210100-
WESTCENTRAL MOUNTAINS/SOUTHWEST MOUNTAINS
  
CITY           SKY/WX    TMP DP  RH WIND       PRES   REMARKS
GALLUP         FAIR      29  14  53 W10       29.71F WCI  20          
6HR MIN TEMP:  24; 6HR MAX TEMP:  32;                                

GRANTS         CLOUDY    34  10  36 SW8       29.75S WCI  27          
SILVER CITY    FAIR      43   6  21 W14       29.79S                  

$$
NMZ407-409-411-412-210100-
SOUTHERN DESERTS
  
CITY           SKY/WX    TMP DP  RH WIND       PRES   REMARKS
DEMING         FAIR      50   3  14 W9        29.78F                  
6HR MIN TEMP:  40; 6HR MAX TEMP:  52;                                

LAS CRUCES     FAIR      52   7  16 SW7       29.80F                  
ALAMOGORDO     FAIR      50   1  13 S15       29.79F                  
T OR C         FAIR      52  -3  10 S20G25    29.69F                  
6HR MIN TEMP:  38; 6HR MAX TEMP:  53;                                


$$
NMZ519>523-210100-
CENTRAL VALLEYS/CENTRAL HIGHLANDS
  
CITY           SKY/WX    TMP DP  RH WIND       PRES   REMARKS
ALBUQUERQUE    FAIR      41   8  25 W10       29.75F                  
6HR MIN TEMP:  31; 6HR MAX TEMP:  41;                                

DOUBLE EAGLE   PTCLDY    37  10  32 W10G17    29.75F WCI  30          
MORIARTY ARPT  FAIR      38   8  29 W12       29.76R WCI  31          
6HR MIN TEMP:  31; 6HR MAX TEMP:  40;                                

CLINES CORNERS FAIR      31   8  38 NW20G29   29.73R WCI  19          
6HR MIN TEMP:  23; 6HR MAX TEMP:  33;                                

BELEN          FAIR      43   8  24 E8        29.75S                  
6HR MIN TEMP:  34; 6HR MAX TEMP:  44;                                

SOCORRO        FAIR      47   3  16 SE12      29.73F                  
6HR MIN TEMP:  34; 6HR MAX TEMP:  48;                                


$$
NMZ524>526-539-540-210100-
SOUTHCENTRAL MOUNTAINS
  
CITY           SKY/WX    TMP DP  RH WIND       PRES   REMARKS
RUIDOSO        NOT AVBL                                               

$$
NMZ527>531-210100-
NORTHEAST HIGHLANDS/NORTHEAST PLAINS
  
CITY           SKY/WX    TMP DP  RH WIND       PRES   REMARKS
LAS VEGAS      FAIR      33   8  35 SW23      29.65R WCI  21          
6HR MIN TEMP:  31; 6HR MAX TEMP:  40;                                

RATON          FAIR      33  11  39 SW17      29.62R WCI  22          
6HR MIN TEMP:  24; 6HR MAX TEMP:  36;                                

CLAYTON        FAIR      37  18  46 SE6       29.67S WCI  32          
6HR MIN TEMP:  27; 6HR MAX TEMP:  38;                                


$$
NMZ532>537-210100-
EASTCENTRAL PLAINS
  
CITY           SKY/WX    TMP DP  RH WIND       PRES   REMARKS
SANTA ROSA     FAIR      44   7  22 SW16G23   29.73R                  
TUCUMCARI      FAIR      49  11  21 SW21G31   29.69R                  
6HR MIN TEMP:  44; 6HR MAX TEMP:  52;                                

CANNON AFB     FAIR      47   8  20 SW14      29.77S                  
6HR MIN TEMP:  39; 6HR MAX TEMP:  49;                                

CLOVIS AIRPORT FAIR      47   8  20 SW15      29.77R                  

$$
NMZ028-029-538-210100-
SOUTHEAST PLAINS
  
CITY           SKY/WX    TMP DP  RH WIND       PRES   REMARKS
ROSWELL        FAIR      58  -1   9 CALM      29.70F                  
6HR MIN TEMP:  44; 6HR MAX TEMP:  59;                                

ARTESIA        FAIR      54   1  12 S21       29.76R                  
CARLSBAD       FAIR      55   2  11 S6        29.77S                  
6HR MIN TEMP:  47; 6HR MAX TEMP:  57;                                

HOBBS          CLEAR     54  -2  10 S14       29.80S                  


$$